Temp
78 81 81 81 83 84 83 81 80 77 79 79 79 79 78 80 80 78 79 77 77 80
77 76 79 79 78 82 81 83 80 78 78 79 79 79 78 80 78 78 77 77 77 78
76 75 74 75 76 78 80 80 80 79 79 79 79 79 78 79 78 77 78 79 76 76
72 74 75 75 76 78 78 80 79 80 80 80 79 79 77 78 78 77 76 76 76 75
69 71 68 70 74 76 76 78 79 80 79 80 80 79 77 77 78 77 75 75 75 75
66 66 66 67 67 70 73 74 74 73 72 73 77 78 78 79 78 77 76 76 75 75
66 65 66 66 66 66 69 69 70 67 70 71 71 74 77 78 75 74 74 75 75 75
67 67 67 66 67 67 67 66 63 67 67 67 69 71 69 70 66 67 72 73 74 74
67 67 65 67 65 64 67 67 67 63 62 64 65 58 55 61 63 63 66 65 69 74
65 65 63 62 62 63 63 63 62 63 63 61 63 53 51 54 68 66 64 67 66 70
65 64 65 64 62 58 60 63 63 63 61 59 59 53 49 51 67 68 67 69 71 71
63 62 63 63 63 63 62 59 58 58 59 59 59 51 48 51 62 66 68 71 70 72
60 60 60 62 62 62 63 63 66 65 62 57 60 50 49 48 60 61 66 63 65 54
58 57 58 59 61 61 61 59 59 62 63 62 60 56 48 47 59 62 62 60 62 68
MSLP
1009.64 1009.68 1009.72 1010.14 1009.90 1010.10 1010.87 1011.59 1012.21 1012.81 1013.23 1013.66 1014.01 1014.49 1014.91 1015.34 1015.57 1015.82 1016.05 1016.37 1016.59 1016.59
1009.70 1010.02 1009.78 1010.00 1010.51 1010.48 1010.57 1011.07 1011.78 1012.25 1012.54 1013.12 1013.63 1014.04 1014.51 1014.75 1015.13 1015.48 1015.84 1016.09 1016.42 1016.52
1009.27 1009.66 1010.15 1010.29 1010.16 1010.28 1010.34 1010.59 1011.14 1011.66 1011.97 1012.36 1012.91 1013.54 1014.10 1014.33 1014.72 1015.06 1015.30 1015.54 1016.06 1016.37
1009.69 1009.55 1009.56 1009.60 1009.71 1009.93 1010.21 1010.45 1010.71 1010.99 1011.23 1011.58 1012.12 1012.72 1013.19 1013.51 1013.93 1014.36 1014.75 1015.14 1015.50 1015.90
1010.76 1010.32 1009.97 1009.74 1009.66 1009.83 1009.83 1010.01 1010.28 1010.65 1011.11 1011.50 1011.36 1011.92 1012.34 1012.65 1013.14 1013.64 1014.11 1014.53 1014.80 1015.26
1011.74 1011.34 1011.01 1010.47 1010.24 1010.23 1009.93 1010.02 1010.14 1010.53 1010.58 1010.90 1011.53 1011.39 1011.33 1011.74 1012.18 1012.73 1013.22 1013.74 1014.17 1014.49
1012.02 1011.88 1011.74 1011.68 1011.07 1010.84 1010.63 1010.53 1010.05 1010.34 1010.20 1010.09 1011.00 1011.13 1011.33 1011.36 1011.39 1011.77 1012.40 1012.78 1013.57 1014.13
1011.89 1011.72 1011.66 1011.64 1011.07 1010.87 1010.86 1010.67 1010.62 1009.89 1009.98 1009.84 1010.67 1010.97 1010.80 1010.80 1011.55 1011.98 1011.09 1012.25 1012.62 1013.58
1011.95 1011.69 1011.47 1011.14 1011.07 1011.50 1010.66 1011.03 1010.67 1010.67 1011.22 1011.02 1010.79 1010.82 1010.97 1011.30 1011.86 1011.35 1012.05 1011.57 1012.39 1012.88
1011.97 1011.63 1011.41 1011.23 1011.01 1010.73 1010.55 1010.83 1011.11 1010.42 1010.36 1011.04 1010.87 1011.30 1011.32 1010.97 1010.75 1011.54 1011.03 1011.06 1011.82 1012.37
1011.85 1011.52 1011.23 1010.98 1010.82 1010.65 1010.41 1010.22 1010.18 1010.03 1010.29 1010.55 1010.21 1010.94 1010.99 1011.07 1010.61 1011.01 1010.37 1010.53 1011.04 1011.56
1011.58 1011.23 1010.91 1010.57 1010.32 1010.12 1009.98 1009.80 1009.66 1009.55 1009.81 1009.96 1010.30 1010.00 1010.89 1011.39 1010.36 1010.00 1009.96 1010.23 1010.56 1011.25
1011.42 1011.02 1010.53 1010.11 1009.82 1009.69 1009.41 1009.12 1008.55 1008.44 1008.81 1009.03 1009.37 1009.42 1009.73 1010.73 1009.79 1009.80 1009.69 1010.22 1010.68 1011.32
1010.92 1010.58 1010.15 1009.66 1009.25 1009.12 1008.93 1008.88 1008.71 1008.31 1008.26 1008.50 1008.76 1009.06 1009.41 1010.15 1009.16 1008.76 1009.72 1010.41 1010.32 1011.03
Wind_Speed
14 11 11 11 10 11 10 11 10 13 12 12 12 11 10 8 8 7 7 8 6 5
9 10 10 10 9 9 9 10 11 13 13 13 12 13 12 9 9 8 7 7 7 6
6 7 9 7 10 12 10 12 11 13 14 14 14 14 13 10 10 10 8 7 8 7
4 4 7 10 12 13 12 12 12 13 14 15 15 15 14 13 12 12 11 9 10 9
10 7 4 6 8 10 11 11 12 11 10 14 15 15 16 16 15 15 14 14 12 11
10 11 12 9 6 5 8 9 8 8 10 8 13 14 18 18 18 17 17 15 14 13
8 8 7 8 7 9 6 5 2 4 7 7 10 13 16 17 17 16 15 16 14 13
8 7 6 7 7 7 7 8 8 8 7 6 9 9 13 13 8 10 14 15 13 13
11 9 7 8 7 8 6 5 3 6 7 7 6 8 9 9 13 8 15 11 12 13
11 12 10 7 7 8 7 9 8 5 2 4 7 9 11 13 11 16 13 13 11 11
12 12 12 11 9 8 6 9 9 11 9 6 2 10 8 11 14 14 14 14 14 13
14 15 14 13 12 11 10 8 8 7 11 11 9 6 7 10 9 10 11 11 10 12
14 16 16 15 13 11 10 10 8 9 10 9 11 9 8 9 4 7 8 5 6 7
15 15 16 15 12 11 10 7 6 5 6 10 11 9 13 14 6 4 5 5 4 7
Wind_Direction
231 232 228 226 215 200 202 207 193 193 190 191 191 195 195 198 202 190 192 189 195 198
228 236 242 233 230 219 209 209 200 198 189 190 194 196 194 203 197 193 192 191 191 205
231 232 229 238 228 229 230 218 210 203 200 192 193 196 198 198 196 192 189 190 191 201
354 289 241 235 229 233 237 234 232 223 212 203 200 197 197 204 196 197 189 187 191 197
10 0 24 317 270 250 238 232 233 240 242 241 212 203 206 202 199 200 193 193 188 191
23 25 21 34 28 313 254 243 234 226 206 224 247 228 210 208 203 198 199 189 190 187
342 352 4 359 22 38 22 338 329 250 273 247 251 242 236 221 206 195 189 186 190 186
331 333 323 311 332 0 5 43 18 357 322 300 269 262 240 224 228 218 188 189 182 188
316 319 326 319 308 291 296 315 62 67 9 300 272 260 243 247 213 253 249 167 189 184
309 308 304 296 298 294 287 261 259 264 168 317 324 262 227 221 203 192 201 177 177 178
301 301 302 291 278 272 267 262 264 248 238 238 315 303 255 234 217 211 193 187 187 183
294 294 291 289 285 282 269 250 238 237 237 225 226 173 244 251 213 213 198 193 192 199
286 284 282 279 274 276 271 271 260 252 244 231 225 193 188 231 249 206 199 180 191 199
280 275 273 274 267 261 252 250 267 250 251 234 221 199 194 211 210 246 209 203 179 226